Terminal Aerodrome Forecast
Issued by NWS Billings, MT

Home | Current Version | Previous Version | Text Only | Print | Product List | Glossary On
Versions: 1 2 3 4 5 6 7 8 9 10 11 12 13 14 15 16 17 18 19 20 21 22 23 24 25 26 27 28 29
000
FTUS45 KBYZ 212031 AAA
TAFSHR
TAF AMD
KSHR 212031Z 2121/2218 24015KT P6SM FEW100 BKN150
     FM220100 31016G25KT P6SM VCSH SCT090 BKN120
     FM220600 28007KT P6SM SCT120=

USA.gov is the U.S. government's official web portal to all federal, state and local government web resources and services.